GOSAT (IBUKI)

Last updated on Fri Oct 04 2024 00:02:25 GMT+0000 (Coordinated Universal Time)

1 33492U 09002A 24277.59437186 .00003503 00000+0 62579-3 0 9999 2 33492 98.0475 27.1262 0001211 110.2476 249.8859 14.67550938840298
UTC large
Height (km)
Speed (km/s)
/
Latitude / Longitude
Inclination (degrees)
Orbital Period (minutes)
Azimuth
Elevation
Range (km)
Doppler Factor

Next 0 passes for location: London (51.5072 / 0.1276)

Sorry there are no passes over London.